Time,TemperatureF,DewpointF,PressureIn,WindDirection,WindDirectionDegrees,WindSpeedMPH,WindSpeedGustMPH,Humidity,HourlyPrecipIn,Conditions,Clouds,dailyrainin,SoftwareType,DateUTC
2013-04-12 00:00:00,75.6,69.8,30.11,South,180,0.0,0.0,82,0.00,,,0.00,WUHU21623XXSP,2013-04-12 04:00:00,
2013-04-12 00:05:00,75.6,70.1,30.11,SW,225,0.0,0.0,83,0.00,,,0.00,WUHU21623XXSP,2013-04-12 04:05:00,
2013-04-12 00:10:00,75.6,70.1,30.12,South,180,0.0,0.0,83,0.00,,,0.00,WUHU21623XXSP,2013-04-12 04:10:00,
2013-04-12 00:15:00,75.6,70.5,30.12,South,180,0.0,0.0,84,0.00,,,0.00,WUHU21623XXSP,2013-04-12 04:15:00,
2013-04-12 00:20:00,75.6,70.5,30.12,SE,135,0.0,0.0,84,0.00,,,0.00,WUHU21623XXSP,2013-04-12 04:20:00,
2013-04-12 00:25:00,75.8,71.0,30.12,SSE,157,0.0,0.0,85,0.00,,,0.00,WUHU21623XXSP,2013-04-12 04:25:00,
2013-04-12 00:30:00,75.8,71.0,30.12,SSE,157,0.0,0.0,85,0.00,,,0.00,WUHU21623XXSP,2013-04-12 04:30:00,
2013-04-12 00:35:00,75.8,71.0,30.12,WNW,292,0.0,0.0,85,0.00,,,0.00,WUHU21623XXSP,2013-04-12 04:35:00,
2013-04-12 00:40:00,75.8,71.0,30.13,SSE,157,0.0,0.0,85,0.00,,,0.00,WUHU21623XXSP,2013-04-12 04:40:00,
2013-04-12 00:45:00,75.8,71.0,30.13,South,180,0.0,0.0,85,0.00,,,0.00,WUHU21623XXSP,2013-04-12 04:45:00,
2013-04-12 00:50:00,75.8,71.0,30.13,South,180,0.0,0.0,85,0.00,,,0.00,WUHU21623XXSP,2013-04-12 04:50:00,
2013-04-12 00:55:00,75.6,71.1,30.12,South,180,0.0,0.0,86,0.00,,,0.00,WUHU21623XXSP,2013-04-12 04:55:00,
2013-04-12 01:00:00,75.6,71.1,30.12,SSE,157,0.0,0.0,86,0.00,,,0.00,WUHU21623XXSP,2013-04-12 05:00:00,
2013-04-12 01:05:00,75.6,71.1,30.12,WSW,247,0.0,0.0,86,0.00,,,0.00,WUHU21623XXSP,2013-04-12 05:05:00,
2013-04-12 01:10:00,75.6,71.1,30.12,SSE,157,0.0,0.0,86,0.00,,,0.00,WUHU21623XXSP,2013-04-12 05:10:00,
2013-04-12 01:15:00,75.6,71.1,30.12,South,180,0.0,0.0,86,0.00,,,0.00,WUHU21623XXSP,2013-04-12 05:15:00,
2013-04-12 01:20:00,75.6,71.1,30.12,ESE,112,0.0,0.0,86,0.00,,,0.00,WUHU21623XXSP,2013-04-12 05:20:00,
2013-04-12 01:25:00,75.6,71.1,30.13,South,180,0.0,0.0,86,0.00,,,0.00,WUHU21623XXSP,2013-04-12 05:25:00,
2013-04-12 01:30:00,75.6,71.1,30.13,WSW,247,0.0,0.0,86,0.00,,,0.00,WUHU21623XXSP,2013-04-12 05:30:00,
2013-04-12 01:35:00,75.6,71.1,30.13,SE,135,0.0,0.0,86,0.00,,,0.00,WUHU21623XXSP,2013-04-12 05:35:00,
2013-04-12 01:40:00,75.6,71.1,30.13,SSE,157,0.0,0.0,86,0.00,,,0.00,WUHU21623XXSP,2013-04-12 05:40:00,
2013-04-12 01:45:00,75.6,71.1,30.13,South,180,0.0,0.0,86,0.00,,,0.00,WUHU21623XXSP,2013-04-12 05:45:00,
2013-04-12 01:51:00,75.6,71.1,30.13,SE,135,0.0,0.0,86,0.00,,,0.00,WUHU21623XXSP,2013-04-12 05:51:00,
2013-04-12 01:56:00,75.5,71.0,30.13,South,180,0.0,0.0,86,0.00,,,0.00,WUHU21623XXSP,2013-04-12 05:56:00,
2013-04-12 02:01:00,75.6,71.1,30.13,South,180,0.0,0.0,86,0.00,,,0.00,WUHU21623XXSP,2013-04-12 06:01:00,
2013-04-12 02:06:00,75.6,71.1,30.13,South,180,0.0,0.0,86,0.00,,,0.00,WUHU21623XXSP,2013-04-12 06:06:00,
2013-04-12 02:11:00,75.8,71.0,30.13,WSW,247,0.0,0.0,85,0.00,,,0.00,WUHU21623XXSP,2013-04-12 06:11:00,
2013-04-12 02:16:00,75.8,71.0,30.13,SSE,157,0.0,0.0,85,0.00,,,0.00,WUHU21623XXSP,2013-04-12 06:16:00,
2013-04-12 02:21:00,75.8,71.0,30.13,West,270,0.0,0.0,85,0.00,,,0.00,WUHU21623XXSP,2013-04-12 06:21:00,
2013-04-12 02:26:00,75.8,71.0,30.12,SSW,202,0.0,0.0,85,0.00,,,0.00,WUHU21623XXSP,2013-04-12 06:26:00,
2013-04-12 02:31:00,75.8,71.0,30.13,SE,135,0.0,0.0,85,0.00,,,0.00,WUHU21623XXSP,2013-04-12 06:31:00,
2013-04-12 02:36:00,75.8,70.7,30.12,South,180,0.0,0.0,84,0.00,,,0.00,WUHU21623XXSP,2013-04-12 06:36:00,
2013-04-12 02:41:00,75.8,71.0,30.12,SSE,157,0.0,0.0,85,0.00,,,0.00,WUHU21623XXSP,2013-04-12 06:41:00,
2013-04-12 02:46:00,75.8,71.0,30.12,SSE,157,0.0,0.0,85,0.00,,,0.00,WUHU21623XXSP,2013-04-12 06:46:00,
2013-04-12 02:51:00,76.0,71.2,30.13,SSE,157,0.0,0.0,85,0.00,,,0.00,WUHU21623XXSP,2013-04-12 06:51:00,
2013-04-12 02:56:00,76.0,71.2,30.13,South,180,0.0,0.0,85,0.00,,,0.00,WUHU21623XXSP,2013-04-12 06:56:00,
2013-04-12 03:01:00,76.0,71.2,30.13,WSW,247,0.0,0.0,85,0.00,,,0.00,WUHU21623XXSP,2013-04-12 07:01:00,
2013-04-12 03:06:00,76.0,71.2,30.12,SE,135,0.0,0.0,85,0.00,,,0.00,WUHU21623XXSP,2013-04-12 07:06:00,
2013-04-12 03:11:00,76.0,71.2,30.13,West,270,0.0,0.0,85,0.00,,,0.00,WUHU21623XXSP,2013-04-12 07:11:00,
2013-04-12 03:17:00,76.0,71.2,30.12,South,180,0.0,0.0,85,0.00,,,0.00,WUHU21623XXSP,2013-04-12 07:17:00,
2013-04-12 03:22:00,76.0,71.2,30.11,SSE,157,0.0,0.0,85,0.00,,,0.00,WUHU21623XXSP,2013-04-12 07:22:00,
2013-04-12 03:27:00,76.0,71.2,30.11,South,180,0.0,0.0,85,0.00,,,0.00,WUHU21623XXSP,2013-04-12 07:27:00,
2013-04-12 03:32:00,76.0,71.2,30.11,SSE,157,0.0,0.0,85,0.00,,,0.00,WUHU21623XXSP,2013-04-12 07:32:00,
2013-04-12 03:37:00,76.0,71.2,30.12,SW,225,0.0,0.0,85,0.00,,,0.00,WUHU21623XXSP,2013-04-12 07:37:00,
2013-04-12 03:42:00,76.2,71.4,30.12,SSE,157,0.0,0.0,85,0.00,,,0.00,WUHU21623XXSP,2013-04-12 07:42:00,
2013-04-12 03:47:00,76.2,71.4,30.12,SE,135,0.0,0.0,85,0.00,,,0.00,WUHU21623XXSP,2013-04-12 07:47:00,
2013-04-12 03:52:00,76.2,71.4,30.12,South,180,0.0,0.0,85,0.00,,,0.00,WUHU21623XXSP,2013-04-12 07:52:00,
2013-04-12 03:57:00,76.2,71.4,30.12,South,180,0.0,0.0,85,0.00,,,0.00,WUHU21623XXSP,2013-04-12 07:57:00,
2013-04-12 04:02:00,76.2,71.7,30.11,SE,135,0.0,0.0,86,0.00,,,0.00,WUHU21623XXSP,2013-04-12 08:02:00,
2013-04-12 04:07:00,76.2,71.7,30.12,South,180,0.0,0.0,86,0.00,,,0.00,WUHU21623XXSP,2013-04-12 08:07:00,
2013-04-12 04:12:00,76.2,71.7,30.12,SSE,157,0.0,0.0,86,0.00,,,0.00,WUHU21623XXSP,2013-04-12 08:12:00,
2013-04-12 04:17:00,76.2,71.7,30.12,WSW,247,0.0,0.0,86,0.00,,,0.00,WUHU21623XXSP,2013-04-12 08:17:00,
2013-04-12 04:22:00,76.2,71.7,30.12,West,270,0.0,0.0,86,0.00,,,0.00,WUHU21623XXSP,2013-04-12 08:22:00,
2013-04-12 04:27:00,76.2,71.7,30.12,SSE,157,0.0,0.0,86,0.00,,,0.00,WUHU21623XXSP,2013-04-12 08:27:00,
2013-04-12 04:32:00,76.2,72.1,30.12,SSE,157,0.0,0.0,87,0.00,,,0.00,WUHU21623XXSP,2013-04-12 08:32:00,
2013-04-12 04:37:00,76.2,72.1,30.12,South,180,0.0,0.0,87,0.00,,,0.00,WUHU21623XXSP,2013-04-12 08:37:00,
2013-04-12 04:42:00,76.2,72.1,30.13,SSE,157,0.0,0.0,87,0.00,,,0.00,WUHU21623XXSP,2013-04-12 08:42:00,
2013-04-12 04:47:00,76.2,72.1,30.12,ESE,112,0.0,0.0,87,0.00,,,0.00,WUHU21623XXSP,2013-04-12 08:47:00,
2013-04-12 04:52:00,76.2,72.1,30.12,SSE,157,0.0,0.0,87,0.00,,,0.00,WUHU21623XXSP,2013-04-12 08:52:00,
2013-04-12 04:57:00,76.2,72.1,30.12,SSE,157,0.0,0.0,87,0.00,,,0.00,WUHU21623XXSP,2013-04-12 08:57:00,
2013-04-12 05:02:00,76.2,72.1,30.11,South,180,0.0,0.0,87,0.00,,,0.00,WUHU21623XXSP,2013-04-12 09:02:00,
2013-04-12 05:08:00,76.0,71.9,30.12,SE,135,0.0,0.0,87,0.00,,,0.00,WUHU21623XXSP,2013-04-12 09:08:00,
2013-04-12 05:13:00,76.0,71.9,30.11,ESE,112,0.0,0.0,87,0.00,,,0.00,WUHU21623XXSP,2013-04-12 09:13:00,
2013-04-12 05:18:00,75.8,71.7,30.11,SE,135,0.0,0.0,87,0.00,,,0.00,WUHU21623XXSP,2013-04-12 09:18:00,
2013-04-12 05:23:00,75.8,71.7,30.11,South,180,0.0,0.0,87,0.00,,,0.00,WUHU21623XXSP,2013-04-12 09:23:00,
2013-04-12 05:28:00,75.8,71.7,30.11,South,180,0.0,0.0,87,0.00,,,0.00,WUHU21623XXSP,2013-04-12 09:28:00,
2013-04-12 05:33:00,75.8,71.7,30.11,SSE,157,0.0,0.0,87,0.00,,,0.00,WUHU21623XXSP,2013-04-12 09:33:00,
2013-04-12 05:38:00,75.8,71.7,30.11,SE,135,0.0,0.0,87,0.00,,,0.00,WUHU21623XXSP,2013-04-12 09:38:00,
2013-04-12 05:43:00,75.8,71.7,30.11,SE,135,0.0,0.0,87,0.00,,,0.00,WUHU21623XXSP,2013-04-12 09:43:00,
2013-04-12 05:48:00,75.8,71.7,30.11,East,90,0.0,0.0,87,0.00,,,0.00,WUHU21623XXSP,2013-04-12 09:48:00,
2013-04-12 05:53:00,75.8,71.7,30.11,SE,135,0.0,0.0,87,0.00,,,0.00,WUHU21623XXSP,2013-04-12 09:53:00,
2013-04-12 05:58:00,75.6,71.5,30.10,SSE,157,0.0,0.0,87,0.00,,,0.00,WUHU21623XXSP,2013-04-12 09:58:00,
2013-04-12 06:03:00,75.6,71.5,30.10,ESE,112,0.0,0.0,87,0.00,,,0.00,WUHU21623XXSP,2013-04-12 10:03:00,
2013-04-12 06:08:00,75.5,71.4,30.10,South,180,0.0,0.0,87,0.00,,,0.00,WUHU21623XXSP,2013-04-12 10:08:00,
2013-04-12 06:13:00,75.5,71.4,30.10,ESE,112,0.0,0.0,87,0.00,,,0.00,WUHU21623XXSP,2013-04-12 10:13:00,
2013-04-12 06:18:00,75.3,71.5,30.10,South,180,0.0,0.0,88,0.00,,,0.00,WUHU21623XXSP,2013-04-12 10:18:00,
2013-04-12 06:23:00,75.3,71.5,30.10,SE,135,0.0,0.0,88,0.00,,,0.00,WUHU21623XXSP,2013-04-12 10:23:00,
2013-04-12 06:28:00,75.1,71.3,30.10,South,180,0.0,0.0,88,0.00,,,0.00,WUHU21623XXSP,2013-04-12 10:28:00,
2013-04-12 06:33:00,75.1,71.3,30.11,ESE,112,0.0,0.0,88,0.00,,,0.00,WUHU21623XXSP,2013-04-12 10:33:00,
2013-04-12 06:38:00,74.9,71.1,30.11,East,90,0.0,0.0,88,0.00,,,0.00,WUHU21623XXSP,2013-04-12 10:38:00,
2013-04-12 06:43:00,74.9,71.1,30.11,SSE,157,0.0,0.0,88,0.00,,,0.00,WUHU21623XXSP,2013-04-12 10:43:00,
2013-04-12 06:48:00,74.7,70.9,30.11,SSE,157,0.0,0.0,88,0.00,,,0.00,WUHU21623XXSP,2013-04-12 10:48:00,
2013-04-12 06:53:00,74.7,70.9,30.12,SSE,157,0.0,0.0,88,0.00,,,0.00,WUHU21623XXSP,2013-04-12 10:53:00,
2013-04-12 06:58:00,74.6,70.8,30.12,SSE,157,0.0,0.0,88,0.00,,,0.00,WUHU21623XXSP,2013-04-12 10:58:00,
2013-04-12 07:03:00,74.6,71.1,30.13,SE,135,0.0,0.0,89,0.00,,,0.00,WUHU21623XXSP,2013-04-12 11:03:00,
2013-04-12 07:08:00,74.4,70.9,30.13,SSE,157,0.0,0.0,89,0.00,,,0.00,WUHU21623XXSP,2013-04-12 11:08:00,
2013-04-12 07:13:00,74.4,70.9,30.13,SE,135,0.0,0.0,89,0.00,,,0.00,WUHU21623XXSP,2013-04-12 11:13:00,
2013-04-12 07:18:00,74.4,70.9,30.14,SE,135,0.0,0.0,89,0.00,,,0.00,WUHU21623XXSP,2013-04-12 11:18:00,
2013-04-12 07:23:00,74.4,70.9,30.14,SE,135,0.0,0.0,89,0.00,,,0.00,WUHU21623XXSP,2013-04-12 11:23:00,
2013-04-12 07:28:00,74.4,70.9,30.14,SE,135,0.0,0.0,89,0.00,,,0.00,WUHU21623XXSP,2013-04-12 11:28:00,
2013-04-12 07:33:00,74.4,70.9,30.14,SSE,157,0.0,0.0,89,0.00,,,0.00,WUHU21623XXSP,2013-04-12 11:33:00,
2013-04-12 07:38:00,74.4,70.9,30.14,SSE,157,0.0,0.0,89,0.00,,,0.00,WUHU21623XXSP,2013-04-12 11:38:00,
2013-04-12 07:43:00,74.4,70.9,30.14,SE,135,0.0,0.0,89,0.00,,,0.00,WUHU21623XXSP,2013-04-12 11:43:00,
2013-04-12 07:48:00,74.4,70.9,30.14,South,180,0.0,0.0,89,0.00,,,0.00,WUHU21623XXSP,2013-04-12 11:48:00,
2013-04-12 07:53:00,74.6,71.5,30.14,South,180,0.0,0.0,90,0.00,,,0.00,WUHU21623XXSP,2013-04-12 11:53:00,
2013-04-12 07:58:00,74.6,71.5,30.14,SSE,157,0.0,0.0,90,0.00,,,0.00,WUHU21623XXSP,2013-04-12 11:58:00,
2013-04-12 08:03:00,74.6,71.5,30.14,SSE,157,0.0,0.0,90,0.00,,,0.00,WUHU21623XXSP,2013-04-12 12:03:00,
2013-04-12 08:08:00,74.7,71.6,30.14,South,180,0.0,0.0,90,0.00,,,0.00,WUHU21623XXSP,2013-04-12 12:08:00,
2013-04-12 08:13:00,74.7,71.6,30.14,SSE,157,0.0,0.0,90,0.00,,,0.00,WUHU21623XXSP,2013-04-12 12:13:00,
2013-04-12 08:18:00,74.7,71.6,30.14,SSE,157,0.0,0.0,90,0.00,,,0.00,WUHU21623XXSP,2013-04-12 12:18:00,
2013-04-12 08:23:00,74.9,71.8,30.13,SE,135,0.0,0.0,90,0.00,,,0.00,WUHU21623XXSP,2013-04-12 12:23:00,
2013-04-12 08:28:00,74.9,71.8,30.14,South,180,0.0,0.0,90,0.00,,,0.00,WUHU21623XXSP,2013-04-12 12:28:00,
2013-04-12 08:33:00,74.9,71.8,30.14,South,180,0.0,0.0,90,0.00,,,0.00,WUHU21623XXSP,2013-04-12 12:33:00,
2013-04-12 08:39:00,74.9,71.8,30.14,South,180,0.0,0.0,90,0.00,,,0.00,WUHU21623XXSP,2013-04-12 12:39:00,
2013-04-12 08:44:00,74.9,71.8,30.13,South,180,0.0,0.0,90,0.00,,,0.00,WUHU21623XXSP,2013-04-12 12:44:00,
2013-04-12 08:49:00,75.1,72.0,30.14,SSW,202,0.0,0.0,90,0.00,,,0.00,WUHU21623XXSP,2013-04-12 12:49:00,
2013-04-12 08:54:00,75.3,72.2,30.14,SSE,157,0.0,0.0,90,0.00,,,0.00,WUHU21623XXSP,2013-04-12 12:54:00,
2013-04-12 08:59:00,75.3,72.2,30.14,SSE,157,0.0,0.0,90,0.00,,,0.00,WUHU21623XXSP,2013-04-12 12:59:00,
2013-04-12 09:04:00,75.5,72.4,30.14,SSE,157,0.0,0.0,90,0.00,,,0.00,WUHU21623XXSP,2013-04-12 13:04:00,
2013-04-12 09:09:00,75.5,72.4,30.14,SSE,157,0.0,0.0,90,0.00,,,0.00,WUHU21623XXSP,2013-04-12 13:09:00,
2013-04-12 09:14:00,75.6,72.4,30.14,SE,135,0.0,0.0,90,0.00,,,0.00,WUHU21623XXSP,2013-04-12 13:14:00,
2013-04-12 09:19:00,75.6,72.4,30.14,South,180,0.0,0.0,90,0.00,,,0.00,WUHU21623XXSP,2013-04-12 13:19:00,
2013-04-12 09:24:00,75.6,72.4,30.14,South,180,0.0,0.0,90,0.00,,,0.00,WUHU21623XXSP,2013-04-12 13:24:00,
2013-04-12 09:29:00,75.8,72.6,30.14,South,180,0.0,0.0,90,0.00,,,0.00,WUHU21623XXSP,2013-04-12 13:29:00,
2013-04-12 09:34:00,75.8,72.6,30.14,SSW,202,0.0,0.0,90,0.00,,,0.00,WUHU21623XXSP,2013-04-12 13:34:00,
2013-04-12 09:39:00,75.8,72.6,30.15,South,180,0.0,0.0,90,0.00,,,0.00,WUHU21623XXSP,2013-04-12 13:39:00,
2013-04-12 09:44:00,75.8,72.6,30.14,SSW,202,0.0,0.0,90,0.00,,,0.00,WUHU21623XXSP,2013-04-12 13:44:00,
2013-04-12 09:49:00,75.8,72.6,30.14,SSE,157,0.0,0.0,90,0.00,,,0.00,WUHU21623XXSP,2013-04-12 13:49:00,
2013-04-12 09:54:00,75.8,72.6,30.14,SW,225,0.0,0.0,90,0.00,,,0.00,WUHU21623XXSP,2013-04-12 13:54:00,
2013-04-12 09:59:00,75.8,72.6,30.14,South,180,0.0,0.0,90,0.00,,,0.00,WUHU21623XXSP,2013-04-12 13:59:00,
2013-04-12 10:04:00,75.8,72.6,30.15,SSE,157,0.0,0.0,90,0.00,,,0.00,WUHU21623XXSP,2013-04-12 14:04:00,
2013-04-12 10:09:00,76.0,72.8,30.15,South,180,0.0,0.0,90,0.00,,,0.00,WUHU21623XXSP,2013-04-12 14:09:00,
2013-04-12 10:14:00,75.8,72.6,30.15,South,180,0.0,0.0,90,0.00,,,0.00,WUHU21623XXSP,2013-04-12 14:14:00,
2013-04-12 10:19:00,75.8,72.6,30.15,South,180,0.0,0.0,90,0.00,,,0.00,WUHU21623XXSP,2013-04-12 14:19:00,
2013-04-12 10:24:00,76.0,72.8,30.15,SSW,202,0.0,0.0,90,0.00,,,0.00,WUHU21623XXSP,2013-04-12 14:24:00,
2013-04-12 10:29:00,76.0,72.8,30.16,SSE,157,0.0,0.0,90,0.00,,,0.00,WUHU21623XXSP,2013-04-12 14:29:00,
2013-04-12 10:34:00,75.8,72.6,30.16,SSW,202,0.0,0.0,90,0.00,,,0.00,WUHU21623XXSP,2013-04-12 14:34:00,
2013-04-12 10:39:00,75.8,72.6,30.16,SW,225,0.0,0.0,90,0.00,,,0.00,WUHU21623XXSP,2013-04-12 14:39:00,
2013-04-12 10:44:00,76.0,72.8,30.15,South,180,0.0,0.0,90,0.00,,,0.00,WUHU21623XXSP,2013-04-12 14:44:00,
2013-04-12 10:49:00,76.0,72.8,30.16,WSW,247,0.0,0.0,90,0.00,,,0.00,WUHU21623XXSP,2013-04-12 14:49:00,
2013-04-12 10:54:00,76.2,73.0,30.16,SSE,157,0.0,0.0,90,0.00,,,0.00,WUHU21623XXSP,2013-04-12 14:54:00,
2013-04-12 10:59:00,76.2,73.0,30.17,SSW,202,0.0,0.0,90,0.00,,,0.00,WUHU21623XXSP,2013-04-12 14:59:00,
2013-04-12 11:04:00,76.4,72.9,30.17,SSW,202,0.0,0.0,89,0.00,,,0.00,WUHU21623XXSP,2013-04-12 15:04:00,
2013-04-12 11:09:00,76.4,72.9,30.17,South,180,0.0,0.0,89,0.00,,,0.00,WUHU21623XXSP,2013-04-12 15:09:00,
2013-04-12 11:14:00,76.4,72.9,30.18,SSW,202,0.0,0.0,89,0.00,,,0.00,WUHU21623XXSP,2013-04-12 15:14:00,
2013-04-12 11:19:00,76.5,73.0,30.18,SSW,202,0.0,0.0,89,0.00,,,0.00,WUHU21623XXSP,2013-04-12 15:19:00,
2013-04-12 11:24:00,76.5,73.0,30.17,South,180,0.0,0.0,89,0.00,,,0.00,WUHU21623XXSP,2013-04-12 15:24:00,
2013-04-12 11:29:00,76.5,73.0,30.17,SW,225,0.0,0.0,89,0.00,,,0.00,WUHU21623XXSP,2013-04-12 15:29:00,
2013-04-12 11:34:00,77.1,73.6,30.16,South,180,0.0,0.0,89,0.00,,,0.00,WUHU21623XXSP,2013-04-12 15:34:00,
2013-04-12 11:39:00,77.4,73.9,30.16,SSW,202,0.0,0.0,89,0.00,,,0.00,WUHU21623XXSP,2013-04-12 15:39:00,
2013-04-12 11:44:00,78.0,74.2,30.16,SE,135,0.0,0.0,88,0.00,,,0.00,WUHU21623XXSP,2013-04-12 15:44:00,
2013-04-12 11:49:00,78.2,74.0,30.17,South,180,0.0,0.0,87,0.00,,,0.00,WUHU21623XXSP,2013-04-12 15:49:00,
2013-04-12 11:54:00,78.3,73.8,30.17,South,180,0.0,0.0,86,0.00,,,0.00,WUHU21623XXSP,2013-04-12 15:54:00,
2013-04-12 11:59:00,78.5,74.0,30.16,SSW,202,0.0,0.0,86,0.00,,,0.00,WUHU21623XXSP,2013-04-12 15:59:00,
2013-04-12 12:04:00,78.5,74.0,30.15,South,180,0.0,0.0,86,0.00,,,0.00,WUHU21623XXSP,2013-04-12 16:04:00,
2013-04-12 12:09:00,78.7,73.9,30.15,SSE,157,0.0,0.0,85,0.00,,,0.00,WUHU21623XXSP,2013-04-12 16:09:00,
2013-04-12 12:14:00,78.7,73.9,30.15,SW,225,0.0,0.0,85,0.00,,,0.00,WUHU21623XXSP,2013-04-12 16:14:00,
2013-04-12 12:19:00,78.7,73.5,30.15,SSE,157,0.0,0.0,84,0.00,,,0.00,WUHU21623XXSP,2013-04-12 16:19:00,
2013-04-12 12:24:00,78.7,73.5,30.15,SW,225,0.0,0.0,84,0.00,,,0.00,WUHU21623XXSP,2013-04-12 16:24:00,
2013-04-12 12:29:00,78.5,73.3,30.15,SSW,202,0.0,0.0,84,0.00,,,0.00,WUHU21623XXSP,2013-04-12 16:29:00,
2013-04-12 12:34:00,78.5,73.3,30.16,SW,225,0.0,0.0,84,0.00,,,0.00,WUHU21623XXSP,2013-04-12 16:34:00,
2013-04-12 12:39:00,78.5,73.3,30.16,WSW,247,0.0,0.0,84,0.00,,,0.00,WUHU21623XXSP,2013-04-12 16:39:00,
2013-04-12 12:44:00,78.5,73.3,30.16,WSW,247,0.0,0.0,84,0.00,,,0.00,WUHU21623XXSP,2013-04-12 16:44:00,
2013-04-12 12:49:00,78.5,73.3,30.16,SSW,202,0.0,0.0,84,0.00,,,0.00,WUHU21623XXSP,2013-04-12 16:49:00,
2013-04-12 12:54:00,78.5,73.3,30.15,South,180,0.0,0.0,84,0.00,,,0.00,WUHU21623XXSP,2013-04-12 16:54:00,
2013-04-12 12:59:00,78.5,73.3,30.15,SSW,202,0.0,0.0,84,0.00,,,0.00,WUHU21623XXSP,2013-04-12 16:59:00,
2013-04-12 13:05:00,78.5,73.3,30.15,SSW,202,0.0,0.0,84,0.00,,,0.00,WUHU21623XXSP,2013-04-12 17:05:00,
2013-04-12 13:10:00,78.3,73.1,30.14,SW,225,0.0,0.0,84,0.00,,,0.00,WUHU21623XXSP,2013-04-12 17:10:00,
2013-04-12 13:15:00,78.0,73.2,30.14,SW,225,0.0,0.0,85,0.00,,,0.00,WUHU21623XXSP,2013-04-12 17:15:00,
2013-04-12 13:20:00,78.0,73.2,30.14,South,180,0.0,0.0,85,0.00,,,0.00,WUHU21623XXSP,2013-04-12 17:20:00,
2013-04-12 13:25:00,78.0,73.2,30.14,WNW,292,0.0,0.0,85,0.00,,,0.00,WUHU21623XXSP,2013-04-12 17:25:00,
2013-04-12 13:30:00,78.0,73.2,30.14,South,180,0.0,0.0,85,0.00,,,0.00,WUHU21623XXSP,2013-04-12 17:30:00,
2013-04-12 13:35:00,78.0,73.2,30.14,SE,135,0.0,0.0,85,0.00,,,0.00,WUHU21623XXSP,2013-04-12 17:35:00,
2013-04-12 13:40:00,77.6,72.8,30.14,WSW,247,0.0,0.0,85,0.00,,,0.00,WUHU21623XXSP,2013-04-12 17:40:00,
2013-04-12 13:45:00,77.6,73.1,30.15,South,180,0.0,0.0,86,0.00,,,0.00,WUHU21623XXSP,2013-04-12 17:45:00,
2013-04-12 13:50:00,77.4,72.9,30.16,WNW,292,0.0,0.0,86,0.00,,,0.00,WUHU21623XXSP,2013-04-12 17:50:00,
2013-04-12 13:55:00,77.1,72.6,30.15,SSW,202,0.0,0.0,86,0.00,,,0.00,WUHU21623XXSP,2013-04-12 17:55:00,
2013-04-12 14:00:00,76.9,72.8,30.15,SSW,202,0.0,0.0,87,0.00,,,0.00,WUHU21623XXSP,2013-04-12 18:00:00,
2013-04-12 14:06:00,76.5,72.4,30.15,West,270,0.0,0.0,87,0.00,,,0.00,WUHU21623XXSP,2013-04-12 18:06:00,
2013-04-12 14:11:00,76.5,72.4,30.15,South,180,0.0,0.0,87,0.00,,,0.00,WUHU21623XXSP,2013-04-12 18:11:00,
2013-04-12 14:16:00,76.4,72.6,30.15,WSW,247,0.0,0.0,88,0.00,,,0.00,WUHU21623XXSP,2013-04-12 18:16:00,
2013-04-12 14:21:00,76.2,72.4,30.15,South,180,0.0,0.0,88,0.00,,,0.00,WUHU21623XXSP,2013-04-12 18:21:00,
2013-04-12 14:26:00,76.0,72.5,30.15,WSW,247,0.0,0.0,89,0.00,,,0.00,WUHU21623XXSP,2013-04-12 18:26:00,
2013-04-12 14:29:00,76.0,72.5,30.15,WSW,247,0.0,0.0,89,0.00,,,0.00,WUHU21623XXSP,2013-04-12 18:29:00,
2013-04-12 14:35:00,75.8,72.3,30.14,SSW,202,0.0,0.0,89,0.00,,,0.00,WUHU21623XXSP,2013-04-12 18:35:00,
2013-04-12 14:42:00,75.8,72.3,30.14,SW,225,0.0,0.0,89,0.00,,,0.00,WUHU21623XXSP,2013-04-12 18:42:00,
2013-04-12 14:48:00,75.8,72.3,30.13,SSW,202,0.0,0.0,89,0.00,,,0.00,WUHU21623XXSP,2013-04-12 18:48:00,
2013-04-12 14:54:00,76.0,72.5,30.12,SSW,202,0.0,0.0,89,0.00,,,0.00,WUHU21623XXSP,2013-04-12 18:54:00,
2013-04-12 15:00:00,75.8,72.3,30.12,SW,225,0.0,0.0,89,0.00,,,0.00,WUHU21623XXSP,2013-04-12 19:00:00,
2013-04-12 15:06:00,75.6,72.1,30.11,SSW,202,0.0,0.0,89,0.00,,,0.00,WUHU21623XXSP,2013-04-12 19:06:00,
2013-04-12 15:12:00,75.5,72.4,30.11,SSE,157,0.0,0.0,90,0.00,,,0.00,WUHU21623XXSP,2013-04-12 19:12:00,
2013-04-12 15:26:00,75.3,72.2,30.10,WSW,247,0.0,0.0,90,0.00,,,0.00,WUHU21623XXSP,2013-04-12 19:26:00,
2013-04-12 15:31:00,75.3,72.2,30.10,SE,135,0.0,0.0,90,0.00,,,0.00,WUHU21623XXSP,2013-04-12 19:31:00,
2013-04-12 15:36:00,75.1,72.0,30.09,SSE,157,0.0,0.0,90,0.00,,,0.00,WUHU21623XXSP,2013-04-12 19:36:00,
2013-04-12 15:42:00,75.1,72.0,30.09,SSW,202,0.0,0.0,90,0.00,,,0.00,WUHU21623XXSP,2013-04-12 19:42:00,
2013-04-12 15:47:00,75.1,72.3,30.09,SW,225,0.0,0.0,91,0.00,,,0.00,WUHU21623XXSP,2013-04-12 19:47:00,
2013-04-12 15:52:00,74.9,72.1,30.09,SW,225,0.0,0.0,91,0.00,,,0.00,WUHU21623XXSP,2013-04-12 19:52:00,
2013-04-12 15:57:00,74.7,71.9,30.07,SSW,202,0.0,0.0,91,0.00,,,0.00,WUHU21623XXSP,2013-04-12 19:57:00,
2013-04-12 16:02:00,74.7,71.9,30.05,South,180,0.0,0.0,91,0.00,,,0.00,WUHU21623XXSP,2013-04-12 20:02:00,
2013-04-12 16:07:00,74.7,72.2,30.06,SE,135,0.0,0.0,92,0.00,,,0.00,WUHU21623XXSP,2013-04-12 20:07:00,
2013-04-12 16:12:00,74.9,72.4,30.07,SW,225,0.0,0.0,92,0.00,,,0.00,WUHU21623XXSP,2013-04-12 20:12:00,
2013-04-12 16:17:00,74.9,72.4,30.06,SSW,202,0.0,0.0,92,0.00,,,0.00,WUHU21623XXSP,2013-04-12 20:17:00,
2013-04-12 16:22:00,75.1,72.6,30.06,South,180,0.0,0.0,92,0.00,,,0.00,WUHU21623XXSP,2013-04-12 20:22:00,
2013-04-12 16:27:00,75.1,72.6,30.05,SSE,157,0.0,0.0,92,0.00,,,0.00,WUHU21623XXSP,2013-04-12 20:27:00,
2013-04-12 16:32:00,75.3,72.5,30.03,SSW,202,0.0,0.0,91,0.00,,,0.00,WUHU21623XXSP,2013-04-12 20:32:00,
2013-04-12 16:37:00,75.6,72.8,30.03,South,180,0.0,0.0,91,0.00,,,0.00,WUHU21623XXSP,2013-04-12 20:37:00,
2013-04-12 16:42:00,75.6,72.8,30.04,SSW,202,0.0,0.0,91,0.00,,,0.00,WUHU21623XXSP,2013-04-12 20:42:00,
2013-04-12 16:47:00,75.8,72.6,30.05,South,180,0.0,0.0,90,0.00,,,0.00,WUHU21623XXSP,2013-04-12 20:47:00,
2013-04-12 16:52:00,75.8,72.6,30.05,SW,225,0.0,0.0,90,0.00,,,0.00,WUHU21623XXSP,2013-04-12 20:52:00,
2013-04-12 16:57:00,75.8,72.6,30.05,SSE,157,0.0,0.0,90,0.00,,,0.00,WUHU21623XXSP,2013-04-12 20:57:00,
2013-04-12 17:02:00,75.8,72.6,30.06,SW,225,0.0,0.0,90,0.00,,,0.00,WUHU21623XXSP,2013-04-12 21:02:00,
2013-04-12 17:07:00,76.0,72.8,30.06,ESE,112,0.0,0.0,90,0.00,,,0.00,WUHU21623XXSP,2013-04-12 21:07:00,
2013-04-12 17:12:00,76.2,73.0,30.06,WSW,247,0.0,0.0,90,0.00,,,0.00,WUHU21623XXSP,2013-04-12 21:12:00,
2013-04-12 17:17:00,76.4,72.9,30.05,SSE,157,0.0,0.0,89,0.00,,,0.00,WUHU21623XXSP,2013-04-12 21:17:00,
2013-04-12 17:22:00,76.5,73.0,30.04,SSE,157,0.0,0.0,89,0.00,,,0.00,WUHU21623XXSP,2013-04-12 21:22:00,
2013-04-12 17:27:00,76.5,72.7,30.03,WSW,247,0.0,0.0,88,0.00,,,0.00,WUHU21623XXSP,2013-04-12 21:27:00,
2013-04-12 17:32:00,76.5,72.7,30.04,SW,225,0.0,0.0,88,0.00,,,0.00,WUHU21623XXSP,2013-04-12 21:32:00,
2013-04-12 17:37:00,76.5,72.4,30.05,SSW,202,0.0,0.0,87,0.00,,,0.00,WUHU21623XXSP,2013-04-12 21:37:00,
2013-04-12 17:42:00,76.7,72.6,30.04,South,180,0.0,0.0,87,0.00,,,0.00,WUHU21623XXSP,2013-04-12 21:42:00,
2013-04-12 17:47:00,76.7,72.6,30.04,SW,225,0.0,0.0,87,0.00,,,0.00,WUHU21623XXSP,2013-04-12 21:47:00,
2013-04-12 17:52:00,76.7,72.2,30.04,South,180,0.0,0.0,86,0.00,,,0.00,WUHU21623XXSP,2013-04-12 21:52:00,
2013-04-12 17:57:00,76.7,72.2,30.04,SW,225,0.0,0.0,86,0.00,,,0.00,WUHU21623XXSP,2013-04-12 21:57:00,
2013-04-12 18:02:00,76.7,72.2,30.04,WSW,247,0.0,0.0,86,0.00,,,0.00,WUHU21623XXSP,2013-04-12 22:02:00,
2013-04-12 18:07:00,76.5,72.0,30.04,West,270,0.0,0.0,86,0.00,,,0.00,WUHU21623XXSP,2013-04-12 22:07:00,
2013-04-12 18:12:00,76.5,72.0,30.04,SSW,202,0.0,0.0,86,0.00,,,0.00,WUHU21623XXSP,2013-04-12 22:12:00,
2013-04-12 18:18:00,76.4,71.9,30.05,SW,225,0.0,0.0,86,0.00,,,0.00,WUHU21623XXSP,2013-04-12 22:18:00,
2013-04-12 18:23:00,76.4,72.3,30.06,South,180,0.0,0.0,87,0.00,,,0.00,WUHU21623XXSP,2013-04-12 22:23:00,
2013-04-12 18:28:00,76.2,72.1,30.05,SSE,157,0.0,0.0,87,0.00,,,0.00,WUHU21623XXSP,2013-04-12 22:28:00,
2013-04-12 18:33:00,76.2,72.1,30.05,South,180,0.0,0.0,87,0.00,,,0.00,WUHU21623XXSP,2013-04-12 22:33:00,
2013-04-12 18:38:00,76.2,72.1,30.04,SW,225,0.0,0.0,87,0.00,,,0.00,WUHU21623XXSP,2013-04-12 22:38:00,
2013-04-12 18:43:00,76.2,72.1,30.05,WSW,247,0.0,0.0,87,0.00,,,0.00,WUHU21623XXSP,2013-04-12 22:43:00,
2013-04-12 18:48:00,76.4,72.3,30.06,SW,225,0.0,0.0,87,0.00,,,0.00,WUHU21623XXSP,2013-04-12 22:48:00,
2013-04-12 18:53:00,76.4,72.3,30.07,WSW,247,0.0,0.0,87,0.00,,,0.00,WUHU21623XXSP,2013-04-12 22:53:00,
2013-04-12 18:58:00,76.2,72.1,30.07,WSW,247,0.0,0.0,87,0.00,,,0.00,WUHU21623XXSP,2013-04-12 22:58:00,
2013-04-12 19:03:00,76.2,72.1,30.08,WNW,292,0.0,0.0,87,0.00,,,0.00,WUHU21623XXSP,2013-04-12 23:03:00,
2013-04-12 19:08:00,75.8,71.7,30.08,West,270,0.0,0.0,87,0.00,,,0.00,WUHU21623XXSP,2013-04-12 23:08:00,
2013-04-12 19:13:00,75.8,71.7,30.09,West,270,0.0,0.0,87,0.00,,,0.00,WUHU21623XXSP,2013-04-12 23:13:00,
2013-04-12 19:18:00,75.6,71.5,30.09,NW,315,0.0,0.0,87,0.00,,,0.00,WUHU21623XXSP,2013-04-12 23:18:00,
2013-04-12 19:23:00,75.6,71.5,30.09,SW,225,0.0,0.0,87,0.00,,,0.00,WUHU21623XXSP,2013-04-12 23:23:00,
2013-04-12 19:28:00,75.5,71.0,30.10,WNW,292,0.0,0.0,86,0.00,,,0.00,WUHU21623XXSP,2013-04-12 23:28:00,
2013-04-12 19:33:00,75.3,70.8,30.10,NW,315,0.0,0.0,86,0.00,,,0.00,WUHU21623XXSP,2013-04-12 23:33:00,
2013-04-12 19:38:00,75.1,70.7,30.11,West,270,0.0,0.0,86,0.00,,,0.00,WUHU21623XXSP,2013-04-12 23:38:00,
2013-04-12 19:43:00,74.9,70.5,30.11,WSW,247,0.0,0.0,86,0.00,,,0.00,WUHU21623XXSP,2013-04-12 23:43:00,
2013-04-12 19:48:00,74.6,70.2,30.11,WSW,247,0.0,0.0,86,0.00,,,0.00,WUHU21623XXSP,2013-04-12 23:48:00,
2013-04-12 19:53:00,74.4,70.3,30.12,WNW,292,0.0,0.0,87,0.00,,,0.00,WUHU21623XXSP,2013-04-12 23:53:00,
2013-04-12 19:58:00,74.0,69.9,30.11,West,270,0.0,0.0,87,0.00,,,0.00,WUHU21623XXSP,2013-04-12 23:58:00,
2013-04-12 20:03:00,73.8,69.7,30.12,NW,315,0.0,0.0,87,0.00,,,0.00,WUHU21623XXSP,2013-04-13 00:03:00,
2013-04-12 20:08:00,73.8,69.7,30.12,West,270,0.0,0.0,87,0.00,,,0.00,WUHU21623XXSP,2013-04-13 00:08:00,
2013-04-12 20:13:00,73.5,69.4,30.13,NW,315,0.0,0.0,87,0.00,,,0.00,WUHU21623XXSP,2013-04-13 00:13:00,
2013-04-12 20:18:00,73.3,68.9,30.12,NW,315,0.0,0.0,86,0.00,,,0.00,WUHU21623XXSP,2013-04-13 00:18:00,
2013-04-12 20:23:00,73.1,68.7,30.12,WNW,292,0.0,0.0,86,0.00,,,0.00,WUHU21623XXSP,2013-04-13 00:23:00,
2013-04-12 20:28:00,72.9,68.5,30.13,WNW,292,0.0,0.0,86,0.00,,,0.00,WUHU21623XXSP,2013-04-13 00:28:00,
2013-04-12 20:33:00,72.9,68.5,30.12,WNW,292,0.0,0.0,86,0.00,,,0.00,WUHU21623XXSP,2013-04-13 00:33:00,
2013-04-12 20:38:00,72.8,68.4,30.12,WNW,292,0.0,0.0,86,0.00,,,0.00,WUHU21623XXSP,2013-04-13 00:38:00,
2013-04-12 20:43:00,72.6,68.2,30.13,West,270,0.0,0.0,86,0.00,,,0.00,WUHU21623XXSP,2013-04-13 00:43:00,
2013-04-12 20:48:00,72.6,68.2,30.13,West,270,0.0,0.0,86,0.00,,,0.00,WUHU21623XXSP,2013-04-13 00:48:00,
2013-04-12 20:53:00,72.4,68.0,30.13,NNE,22,0.0,0.0,86,0.00,,,0.00,WUHU21623XXSP,2013-04-13 00:53:00,
2013-04-12 20:58:00,72.2,67.8,30.12,NNE,22,0.0,0.0,86,0.00,,,0.00,WUHU21623XXSP,2013-04-13 00:58:00,
2013-04-12 21:03:00,72.2,68.1,30.13,NNE,22,0.0,0.0,87,0.00,,,0.00,WUHU21623XXSP,2013-04-13 01:03:00,
2013-04-12 21:08:00,72.2,68.1,30.13,North,0,0.0,0.0,87,0.00,,,0.00,WUHU21623XXSP,2013-04-13 01:08:00,
2013-04-12 21:13:00,72.0,67.9,30.13,North,0,0.0,0.0,87,0.00,,,0.00,WUHU21623XXSP,2013-04-13 01:13:00,
2013-04-12 21:18:00,72.0,68.3,30.12,North,0,0.0,0.0,88,0.00,,,0.00,WUHU21623XXSP,2013-04-13 01:18:00,
2013-04-12 21:23:00,72.0,68.3,30.12,NNE,22,0.0,0.0,88,0.00,,,0.00,WUHU21623XXSP,2013-04-13 01:23:00,
2013-04-12 21:28:00,71.9,68.2,30.13,NNE,22,0.0,0.0,88,0.00,,,0.00,WUHU21623XXSP,2013-04-13 01:28:00,
2013-04-12 21:33:00,71.7,68.0,30.13,North,0,0.0,0.0,88,0.00,,,0.00,WUHU21623XXSP,2013-04-13 01:33:00,
2013-04-12 21:38:00,71.7,68.0,30.13,NNE,22,0.0,0.0,88,0.00,,,0.00,WUHU21623XXSP,2013-04-13 01:38:00,
2013-04-12 21:44:00,71.7,68.0,30.14,NW,315,0.0,0.0,88,0.00,,,0.00,WUHU21623XXSP,2013-04-13 01:44:00,
2013-04-12 21:49:00,71.5,67.8,30.15,WNW,292,0.0,0.0,88,0.00,,,0.00,WUHU21623XXSP,2013-04-13 01:49:00,
2013-04-12 21:54:00,71.5,67.8,30.14,WNW,292,0.0,0.0,88,0.00,,,0.00,WUHU21623XXSP,2013-04-13 01:54:00,
2013-04-12 21:59:00,71.3,67.6,30.14,NW,315,0.0,0.0,88,0.00,,,0.00,WUHU21623XXSP,2013-04-13 01:59:00,
2013-04-12 22:04:00,71.3,67.9,30.14,WNW,292,0.0,0.0,89,0.00,,,0.00,WUHU21623XXSP,2013-04-13 02:04:00,
2013-04-12 22:09:00,71.3,67.9,30.16,WNW,292,0.0,0.0,89,0.00,,,0.00,WUHU21623XXSP,2013-04-13 02:09:00,
2013-04-12 22:14:00,71.3,67.9,30.16,WNW,292,0.0,0.0,89,0.00,,,0.00,WUHU21623XXSP,2013-04-13 02:14:00,
2013-04-12 22:19:00,71.3,67.9,30.16,NNW,337,0.0,0.0,89,0.00,,,0.00,WUHU21623XXSP,2013-04-13 02:19:00,
2013-04-12 22:24:00,71.3,67.9,30.14,NE,45,0.0,0.0,89,0.00,,,0.00,WUHU21623XXSP,2013-04-13 02:24:00,
2013-04-12 22:29:00,71.3,67.9,30.14,NE,45,0.0,0.0,89,0.00,,,0.00,WUHU21623XXSP,2013-04-13 02:29:00,
2013-04-12 22:34:00,71.1,67.7,30.14,NE,45,0.0,0.0,89,0.00,,,0.00,WUHU21623XXSP,2013-04-13 02:34:00,
2013-04-12 22:39:00,71.1,67.7,30.14,NE,45,0.0,0.0,89,0.00,,,0.00,WUHU21623XXSP,2013-04-13 02:39:00,
2013-04-12 22:44:00,71.1,67.7,30.14,NE,45,0.0,0.0,89,0.00,,,0.00,WUHU21623XXSP,2013-04-13 02:44:00,
2013-04-12 22:49:00,71.1,67.7,30.14,NE,45,0.0,0.0,89,0.00,,,0.00,WUHU21623XXSP,2013-04-13 02:49:00,
2013-04-12 22:54:00,71.0,67.6,30.14,NE,45,0.0,0.0,89,0.00,,,0.00,WUHU21623XXSP,2013-04-13 02:54:00,
2013-04-12 22:59:00,71.0,67.6,30.14,NE,45,0.0,0.0,89,0.00,,,0.00,WUHU21623XXSP,2013-04-13 02:59:00,
2013-04-12 23:04:00,71.0,67.6,30.14,NE,45,0.0,0.0,89,0.00,,,0.00,WUHU21623XXSP,2013-04-13 03:04:00,
2013-04-12 23:09:00,71.0,67.6,30.14,NNE,22,0.0,0.0,89,0.00,,,0.00,WUHU21623XXSP,2013-04-13 03:09:00,
2013-04-12 23:14:00,70.8,67.4,30.14,NNE,22,0.0,0.0,89,0.00,,,0.00,WUHU21623XXSP,2013-04-13 03:14:00,
2013-04-12 23:19:00,70.8,67.4,30.14,NNE,22,0.0,0.0,89,0.00,,,0.00,WUHU21623XXSP,2013-04-13 03:19:00,
2013-04-12 23:24:00,70.8,67.4,30.15,NNE,22,0.0,0.0,89,0.00,,,0.00,WUHU21623XXSP,2013-04-13 03:24:00,
2013-04-12 23:29:00,70.8,67.4,30.15,ENE,67,0.0,0.0,89,0.00,,,0.00,WUHU21623XXSP,2013-04-13 03:29:00,
2013-04-12 23:34:00,70.8,67.4,30.16,ENE,67,0.0,0.0,89,0.00,,,0.00,WUHU21623XXSP,2013-04-13 03:34:00,
2013-04-12 23:39:00,70.6,67.2,30.16,ENE,67,0.0,0.0,89,0.00,,,0.00,WUHU21623XXSP,2013-04-13 03:39:00,
2013-04-12 23:44:00,70.4,67.0,30.16,ENE,67,0.0,0.0,89,0.00,,,0.00,WUHU21623XXSP,2013-04-13 03:44:00,
2013-04-12 23:49:00,70.4,67.0,30.17,ENE,67,0.0,0.0,89,0.00,,,0.00,WUHU21623XXSP,2013-04-13 03:49:00,
2013-04-12 23:54:00,70.4,67.0,30.16,ENE,67,0.0,0.0,89,0.00,,,0.00,WUHU21623XXSP,2013-04-13 03:54:00,
2013-04-12 23:59:00,70.4,67.0,30.16,ENE,67,0.0,0.0,89,0.00,,,0.00,WUHU21623XXSP,2013-04-13 03:59:00,